Overview Statistics Trail Chart Weather Telemetry Raw packets
 

This is the latest recevied weather packets stored in our database for station/object S51UL-6. If no packets are shown the sender has not sent any weather packets the latest 10 day(s).

<< 20 21 22 23 24 25 26 >>
Time Temp. Humidity Pressure Rain* Wind** Luminosity Snow
1788510650 28.33° C 55% 1021.1 hPa 1.52 mm - - -
1788510350 28.33° C 56% 1021.3 hPa 1.52 mm - - -
1788510075 27.78° C 58% 1021.3 hPa 2.03 mm - - -
1788509750 27.78° C 58% 1021.2 hPa 2.03 mm - - -
1788509450 27.78° C 58% 1021 hPa 1.52 mm - - -
1788509151 27.22° C 62% 1021.1 hPa 2.54 mm - - -
1788508550 26.67° C 65% 1021.2 hPa 3.05 mm - - -
1788508250 25.56° C 68% 1021.2 hPa 2.54 mm - - -
1788507952 25° C 69% 1021.2 hPa 2.03 mm - - -
1788507650 24.44° C 67% 1021.3 hPa 2.03 mm - - -
1788507350 23.89° C 69% 1021.4 hPa 3.05 mm - - -
1788507051 23.33° C 71% 1021.3 hPa 3.05 mm - - -
1788506775 23.33° C 73% 1021.3 hPa 2.54 mm - - -
1788506451 22.22° C 73% 1021.3 hPa 3.05 mm - - -
1788506151 22.22° C 74% 1021.1 hPa 3.05 mm - - -
1788505853 21.67° C 76% 1021.1 hPa 2.03 mm - - -
1788505552 21.11° C 79% 1021.2 hPa 2.03 mm - - -
1788505251 21.11° C 80% 1021.2 hPa 2.03 mm - - -
1788504951 20.56° C 80% 1021.3 hPa 2.03 mm - - -
1788504651 20° C 82% 1021.2 hPa 2.03 mm - - -
1788504052 19.44° C 84% 1021.2 hPa 2.03 mm - - -
1788503751 18.89° C 84% 1021.3 hPa 1.02 mm - - -
1788503451 18.89° C 84% 1021.3 hPa 1.02 mm - - -
1788503151 18.33° C 86% 1021.4 hPa 0.51 mm - - -
1788502852 18.33° C 87% 1021.4 hPa 0.51 mm - - -

* Rain latest hour (hover to see other rain measurements)
** Current wind speed in m/s (hover to see current wind gust speed)